Wetbulb
61.64 61.00 61.04 61.45 61.00 60.78 60.78 60.99 61.03 61.59 61.75 61.95 62.19 62.13 61.79 60.60 59.75 55.28 50.72 55.06 58.81 63.49 60.41 53.13 53.32 51.98 52.71 52.73 52.56 51.35 48.14 45.09 44.65 44.27 46.62 48.13 47.09 48.82 48.44 47.79 48.07 48.60 48.58 50.84 51.24
61.00 59.90 60.42 59.89 59.98 59.84 60.04 60.30 60.59 61.06 61.38 61.82 61.84 61.82 61.00 59.92 54.09 52.21 58.20 62.79 63.51 62.61 52.74 51.90 51.60 51.70 51.54 49.68 51.40 49.87 47.32 45.48 47.44 47.71 47.38 48.79 47.20 47.30 47.37 49.13 48.74 49.00 51.78 51.35 51.67
59.76 59.58 59.26 58.89 59.03 59.11 59.41 59.67 59.97 60.75 61.11 61.32 61.65 61.60 60.08 58.93 52.36 50.88 60.96 62.34 62.23 58.92 52.75 51.95 51.33 51.61 49.71 49.39 48.25 47.78 46.85 46.21 46.77 47.56 47.50 47.38 47.47 46.88 46.74 46.96 48.33 46.81 48.50 50.26 51.60
59.34 58.59 58.01 58.09 58.19 58.46 58.76 59.07 59.76 60.63 60.99 61.10 61.55 61.06 59.06 55.33 45.89 52.46 59.43 59.76 59.14 53.03 51.78 51.07 52.01 50.19 48.55 47.50 47.26 45.60 47.25 46.32 46.86 46.76 46.46 46.16 46.76 46.49 45.79 48.17 48.88 48.91 50.01 51.84 49.42
58.62 57.67 57.20 57.01 57.16 57.59 58.05 58.69 59.92 60.18 60.36 61.09 61.71 60.39 56.71 51.99 49.67 53.04 57.04 55.93 52.43 51.42 49.75 49.32 49.32 48.80 47.02 47.45 46.75 45.22 46.41 45.35 45.71 45.47 45.30 45.46 45.65 44.39 45.82 48.31 50.01 51.11 50.81 49.42 46.34
57.65 56.72 56.22 56.20 56.22 56.78 57.64 58.82 59.87 59.79 60.23 61.26 61.66 59.11 53.74 49.09 52.94 51.92 53.43 52.44 51.25 50.87 50.15 50.53 48.70 48.90 47.90 46.26 45.26 45.44 45.02 45.67 44.83 44.54 43.59 44.16 44.94 43.97 46.65 49.34 48.54 48.97 48.20 45.91 44.72
56.85 55.80 55.48 55.45 55.55 56.38 57.54 58.73 59.69 59.45 60.33 61.23 59.78 55.26 53.56 50.86 52.75 54.30 52.73 50.30 49.94 49.76 49.40 49.12 49.23 48.74 48.03 46.46 45.70 44.09 42.83 46.41 45.08 45.11 42.91 44.18 43.71 42.10 47.73 48.32 46.06 47.68 45.75 44.33 44.41
55.85 54.96 54.86 54.80 55.02 56.25 57.62 58.70 58.95 59.36 59.98 59.75 58.06 55.00 50.60 54.81 53.76 55.50 54.22 51.46 50.94 50.28 49.18 48.52 49.27 47.93 46.38 46.38 45.12 43.13 43.62 40.57 45.41 44.68 42.76 45.44 39.54 45.82 47.81 45.34 45.27 45.33 44.01 43.12 43.17
55.04 54.30 54.54 54.35 54.79 56.09 57.59 58.19 58.28 59.34 59.97 59.16 55.68 53.96 49.42 55.57 53.52 53.74 52.48 48.73 48.84 49.17 48.16 47.86 48.62 45.70 46.44 45.01 43.96 43.89 39.27 39.44 40.66 45.15 43.19 43.24 40.76 45.55 46.27 43.93 43.27 42.73 41.67 41.44 41.94
54.61 54.17 54.08 53.97 55.03 56.50 57.34 57.85 58.50 57.01 55.22 53.01 52.82 51.24 51.96 49.99 52.44 51.97 52.17 48.29 48.37 47.87 47.67 48.63 47.47 45.89 46.39 43.60 37.35 38.78 38.77 39.35 38.78 42.58 43.10 41.32 41.62 44.19 44.22 42.70 40.98 40.75 40.23 40.14 40.61
54.22 54.05 53.70 53.89 55.35 57.51 56.18 53.78 49.86 51.57 50.22 48.96 48.12 47.29 48.70 52.87 51.73 49.58 48.53 48.38 48.36 48.43 44.59 45.72 41.26 42.10 41.70 41.92 41.95 40.64 39.22 38.64 40.71 43.04 40.49 40.54 40.40 41.49 42.00 40.19 39.06 38.79 38.10 37.93 39.38
53.94 53.66 53.33 53.42 55.03 56.17 54.96 50.53 48.17 47.69 45.39 48.06 48.64 48.73 50.27 50.47 46.40 48.42 50.01 47.29 46.39 43.67 45.93 42.87 38.08 42.38 42.15 41.49 40.48 40.17 37.89 37.50 40.38 41.78 38.71 38.72 37.67 39.65 40.11 36.81 37.19 37.45 36.66 36.94 38.21
53.50 53.25 52.90 53.91 55.26 54.27 50.55 48.66 50.04 50.79 44.44 45.36 47.83 48.26 49.14 47.99 44.65 46.07 47.61 45.60 44.14 43.09 42.39 38.67 39.01 41.63 40.52 40.47 38.26 38.27 36.42 36.74 35.37 38.08 39.60 37.71 35.77 37.09 37.73 37.48 36.53 36.96 37.05 37.13 36.85
52.74 52.58 52.21 53.54 50.44 51.96 48.71 50.35 50.72 50.55 43.96 44.16 44.97 48.02 46.53 46.19 44.01 46.12 44.96 45.52 44.36 40.91 40.19 38.58 41.32 39.95 39.25 38.08 37.60 34.65 37.61 36.17 34.51 32.85 29.64 36.41 27.00 35.06 36.47 34.33 34.05 34.92 35.47 35.80 36.09
52.20 51.53 51.87 51.42 48.45 49.19 49.13 50.72 49.38 46.84 38.21 44.57 45.48 49.06 46.34 43.88 43.84 44.77 45.70 44.71 41.39 39.71 38.01 37.03 37.98 37.66 37.38 36.61 38.19 36.72 36.23 34.44 33.87 32.25 31.27 32.12 28.98 33.63 37.45 31.55 31.18 33.47 34.81 35.62 35.80
51.67 50.98 51.75 49.38 50.38 50.04 50.12 48.69 46.51 43.60 36.15 41.98 45.37 43.43 43.33 41.86 42.42 44.72 43.32 45.23 42.73 39.35 38.82 37.90 39.76 39.26 38.67 38.05 36.83 35.44 34.34 34.74 33.88 31.64 25.43 28.48 26.70 29.82 30.66 28.12 30.41 32.99 34.03 34.25 34.60
51.38 51.02 50.46 50.08 46.10 50.56 50.45 46.24 43.87 37.78 43.84 40.65 40.31 41.70 39.74 39.99 39.75 39.92 38.04 38.23 36.70 32.85 33.54 36.39 36.37 37.78 37.55 35.24 36.63 34.37 32.20 25.97 24.17 25.88 25.26 29.30 25.35 29.04 29.28 30.42 31.03 31.47 32.63 33.39 34.50
51.07 50.54 50.64 50.91 51.20 50.55 47.70 45.84 37.33 41.61 41.73 40.80 40.49 39.47 38.56 38.07 38.09 36.89 34.61 35.09 35.05 36.01 33.81 31.41 29.03 35.57 36.19 33.31 31.00 31.25 30.97 24.18 14.90 18.89 22.23 26.52 20.68 27.71 30.96 32.70 33.00 33.11 32.79 33.26 33.59
50.09 49.80 50.27 50.74 50.66 49.70 43.58 37.38 41.81 40.89 41.93 38.90 39.55 37.61 35.08 36.88 36.17 35.14 34.19 33.78 35.13 36.18 32.51 29.61 28.38 32.82 31.52 33.53 33.26 30.63 27.06 29.35 22.26 18.74 16.81 24.24 27.19 30.91 31.14 30.77 31.42 31.08 31.20 31.39 31.98
47.24 46.70 45.26 50.67 51.10 46.71 39.90 38.27 39.18 42.23 41.03 40.56 38.84 39.99 37.06 36.45 35.55 33.46 32.77 34.69 32.48 33.09 33.52 31.83 26.77 30.49 30.34 32.29 30.67 29.17 30.59 22.17 23.66 12.60 11.92 22.30 23.47 24.92 26.35 27.14 28.98 28.87 29.44 30.25 32.21
47.06 38.77 45.96 50.85 49.58 45.14 34.69 35.87 37.36 39.41 42.61 39.86 38.99 38.50 37.18 36.07 36.14 33.64 32.78 32.43 33.69 29.96 33.78 31.25 28.54 27.03 27.90 27.19 27.45 25.69 24.35 24.33 24.02 20.93 13.47 12.50 22.02 29.15 26.90 27.69 27.31 28.39 29.41 30.44 31.75
43.18 35.92 48.07 49.81 41.38 41.41 36.63 36.42 38.59 38.54 40.82 39.84 39.35 38.46 37.82 37.39 32.85 30.61 31.99 33.82 34.11 32.17 28.72 29.24 27.48 22.77 25.62 27.29 27.92 28.07 26.04 24.55 18.81 15.63 18.74 16.56 16.46 30.15 29.12 29.40 29.00 28.33 29.20 30.89 31.92
40.19 39.17 49.36 48.62 35.91 35.48 37.56 37.65 39.28 38.82 39.20 38.79 37.79 38.66 37.78 33.34 30.45 32.89 32.32 30.71 31.39 30.40 27.88 28.56 24.40 20.31 18.06 23.62 26.07 24.01 24.11 24.75 23.83 21.29 14.10 11.74 18.20 29.72 30.52 28.72 28.69 27.86 29.24 30.31 30.27
40.04 34.37 42.87 44.65 43.55 38.73 39.00 37.07 36.72 40.95 39.99 39.83 37.25 35.87 30.95 29.17 30.28 29.17 28.98 28.22 30.14 29.81 30.84 30.30 25.33 24.34 22.51 24.87 24.36 20.60 22.69 23.87 22.02 15.46 15.96 16.71 19.48 24.84 26.22 25.97 26.81 28.16 28.56 28.67 27.99
41.75 37.35 39.56 36.44 37.44 39.61 40.26 40.76 37.99 36.89 38.68 38.20 32.56 33.55 31.57 28.04 27.98 27.70 29.24 26.87 28.64 29.93 30.11 27.84 20.93 23.19 23.99 24.49 23.87 23.04 22.51 22.90 19.70 20.40 14.96 19.22 19.10 22.93 25.45 25.35 26.59 27.84 27.68 25.68 26.44
44.82 38.05 39.43 38.71 43.02 37.87 37.67 36.94 36.16 38.46 35.45 33.34 31.94 31.33 31.18 31.68 30.17 26.83 28.25 27.31 26.77 27.06 26.19 27.06 20.39 20.23 17.24 22.00 21.54 19.14 21.54 21.75 21.44 21.12 20.10 20.29 19.15 26.81 27.13 27.98 26.17 26.00 23.96 24.29 23.71
44.35 42.15 41.07 44.08 39.59 38.10 39.96 38.52 39.31 39.75 37.58 38.51 34.10 31.03 28.33 32.27 33.71 32.06 33.22 33.14 30.14 25.88 24.06 22.97 20.34 16.85 17.06 17.25 17.10 13.74 18.52 21.07 21.57 22.90 21.58 15.84 21.89 25.66 24.54 24.84 24.13 22.96 24.77 21.77 20.49
MSLP
1020.83 1020.39 1019.97 1019.45 1018.90 1018.41 1018.16 1017.92 1017.51 1017.07 1016.52 1016.16 1015.74 1015.42 1015.07 1014.77 1014.58 1014.33 1014.52 1015.17 1014.77 1014.25 1014.07 1013.66 1013.33 1013.11 1013.00 1012.94 1013.18 1013.05 1011.95 1011.09 1010.95 1011.15 1010.83 1011.44 1011.57 1011.82 1011.89 1011.43 1011.45 1011.24 1011.10 1011.14 1011.10
1021.03 1020.49 1019.93 1019.51 1018.78 1018.15 1017.96 1017.76 1017.34 1016.89 1016.37 1015.97 1015.73 1015.43 1015.11 1014.85 1014.46 1014.49 1015.22 1014.99 1014.65 1014.40 1013.80 1013.37 1013.01 1012.87 1012.65 1012.91 1012.96 1012.44 1011.89 1011.37 1011.59 1011.65 1011.62 1011.56 1012.00 1012.01 1011.57 1011.06 1011.00 1011.17 1011.03 1011.43 1011.24
1021.30 1020.64 1020.02 1019.33 1018.65 1018.01 1017.65 1017.35 1017.09 1016.73 1016.19 1015.69 1015.51 1015.38 1015.13 1014.87 1014.64 1015.22 1015.21 1014.93 1014.56 1014.30 1013.96 1013.68 1013.36 1013.00 1012.76 1013.02 1013.06 1012.74 1011.85 1012.11 1012.25 1012.59 1012.69 1012.30 1012.09 1012.28 1011.85 1011.02 1011.23 1011.57 1011.56 1011.48 1011.29
1021.39 1020.89 1020.27 1019.45 1018.75 1018.09 1017.48 1017.08 1016.78 1016.44 1016.07 1015.55 1015.42 1015.20 1014.84 1014.73 1015.52 1015.61 1015.27 1014.90 1014.53 1014.04 1013.75 1013.46 1013.12 1012.90 1012.91 1012.78 1013.15 1012.98 1012.36 1012.66 1012.97 1013.26 1013.12 1012.65 1012.82 1012.57 1012.21 1011.63 1012.12 1011.95 1011.94 1011.38 1011.71
1021.47 1021.05 1020.39 1019.72 1018.85 1018.13 1017.42 1016.89 1016.52 1016.15 1015.90 1015.37 1015.23 1015.07 1014.74 1014.77 1015.66 1015.48 1015.32 1014.91 1014.57 1014.37 1014.22 1013.85 1013.52 1013.51 1013.22 1013.33 1013.41 1013.12 1012.57 1013.13 1013.63 1013.90 1013.67 1013.29 1012.93 1012.99 1012.33 1012.14 1012.17 1011.75 1011.55 1012.03 1013.10
1021.61 1021.07 1020.54 1019.88 1019.03 1018.24 1017.37 1016.73 1016.36 1015.90 1015.69 1015.29 1015.03 1015.01 1014.33 1015.04 1015.70 1015.72 1015.54 1015.17 1015.10 1014.90 1014.84 1014.47 1014.30 1014.19 1013.88 1013.85 1013.74 1013.44 1013.14 1012.71 1013.37 1013.65 1013.81 1013.38 1012.83 1013.05 1012.37 1012.46 1012.02 1012.25 1012.57 1013.10 1013.81
1021.74 1021.23 1020.69 1019.93 1019.08 1018.25 1017.36 1016.47 1016.31 1015.75 1015.45 1015.06 1015.07 1014.71 1014.56 1015.95 1015.92 1015.84 1015.66 1015.88 1015.85 1015.48 1015.21 1015.06 1014.81 1014.59 1014.35 1013.98 1014.15 1013.82 1013.21 1012.38 1012.99 1013.48 1013.99 1013.63 1012.47 1012.57 1012.50 1012.60 1012.36 1013.03 1013.90 1014.40 1014.74
1022.06 1021.49 1020.90 1019.93 1019.14 1018.34 1017.24 1016.10 1016.11 1015.65 1015.33 1015.14 1015.14 1014.54 1015.46 1016.02 1016.05 1016.04 1015.83 1015.90 1015.99 1015.86 1015.78 1015.78 1015.36 1014.94 1014.71 1014.65 1014.11 1013.56 1013.24 1012.32 1012.13 1013.29 1014.37 1013.77 1012.29 1012.21 1012.79 1012.78 1012.82 1013.72 1014.60 1015.17 1015.52
1022.19 1021.74 1021.01 1020.14 1019.36 1018.45 1017.29 1015.85 1015.61 1015.51 1015.34 1015.20 1015.17 1014.89 1015.99 1016.08 1016.25 1016.57 1016.50 1016.12 1016.01 1015.95 1015.80 1015.84 1015.19 1015.02 1014.69 1013.96 1013.09 1013.23 1012.64 1012.62 1012.29 1012.70 1014.23 1014.02 1012.83 1012.49 1012.87 1013.11 1014.34 1014.96 1015.39 1015.71 1015.70
1022.17 1021.76 1021.11 1020.26 1019.56 1018.65 1017.27 1015.69 1015.14 1015.31 1015.21 1015.31 1015.37 1015.69 1016.30 1016.49 1016.73 1016.77 1016.41 1016.22 1016.00 1015.84 1015.72 1015.36 1014.91 1014.70 1014.33 1013.87 1013.57 1013.56 1013.38 1013.05 1012.71 1012.63 1013.48 1014.02 1013.26 1012.69 1013.06 1014.09 1014.94 1015.63 1016.12 1016.29 1016.31
1022.34 1021.81 1021.08 1020.52 1019.88 1019.00 1017.46 1015.94 1016.38 1016.43 1016.69 1017.15 1017.27 1017.15 1017.00 1016.95 1017.06 1016.69 1016.59 1016.18 1016.07 1015.80 1015.41 1015.60 1015.24 1014.89 1015.16 1015.21 1014.90 1014.73 1014.40 1013.56 1012.78 1012.91 1013.06 1013.72 1013.34 1013.12 1013.52 1015.06 1015.46 1016.04 1016.43 1016.50 1016.45
1022.34 1021.84 1021.15 1020.62 1020.20 1019.47 1018.61 1019.60 1021.53 1022.12 1019.82 1018.30 1018.08 1017.91 1017.70 1017.73 1017.07 1016.79 1016.46 1016.37 1016.17 1015.79 1015.68 1015.51 1015.19 1015.85 1015.99 1015.83 1015.73 1015.28 1014.77 1013.88 1013.54 1013.79 1013.87 1012.99 1013.13 1013.09 1014.11 1015.48 1016.18 1016.65 1017.14 1017.11 1016.74
1022.26 1021.74 1021.14 1020.72 1020.30 1020.07 1020.64 1021.91 1022.33 1022.27 1021.08 1018.42 1017.82 1017.70 1017.60 1017.74 1017.39 1017.30 1017.03 1017.05 1016.75 1016.21 1016.26 1016.18 1015.90 1016.53 1016.55 1016.16 1016.10 1015.74 1015.81 1015.52 1015.06 1014.32 1014.29 1013.10 1012.33 1012.89 1015.05 1015.92 1016.49 1016.92 1017.30 1017.29 1017.02
1022.24 1021.81 1021.29 1020.67 1020.68 1021.18 1021.52 1022.26 1022.25 1022.07 1020.46 1018.32 1017.68 1017.50 1017.63 1017.43 1017.49 1017.75 1017.76 1017.72 1017.13 1016.83 1016.85 1016.76 1016.84 1016.99 1017.01 1016.76 1017.01 1016.69 1017.26 1016.79 1015.89 1015.16 1013.63 1014.95 1013.03 1013.57 1015.01 1015.53 1016.39 1016.77 1017.09 1016.98 1016.73
1022.16 1021.90 1021.56 1021.05 1021.09 1021.36 1022.25 1022.18 1022.17 1022.01 1019.72 1018.04 1017.39 1017.34 1017.40 1017.68 1017.92 1017.94 1018.21 1017.54 1017.22 1017.31 1017.65 1017.01 1017.43 1017.67 1017.79 1018.03 1018.10 1017.86 1017.91 1017.42 1016.43 1015.31 1015.10 1014.26 1014.68 1013.56 1014.10 1015.38 1016.57 1017.09 1017.24 1017.33 1017.21
1022.11 1021.91 1021.58 1021.40 1021.37 1021.97 1022.18 1022.14 1021.86 1020.86 1018.53 1017.43 1017.10 1017.25 1017.40 1017.59 1017.90 1017.94 1018.10 1017.92 1018.31 1018.10 1018.19 1017.95 1018.50 1018.62 1018.53 1018.78 1018.89 1018.88 1018.20 1017.10 1016.32 1016.23 1015.09 1015.16 1015.74 1013.88 1014.98 1017.03 1017.29 1017.33 1017.31 1017.23 1016.99
1021.91 1021.86 1021.73 1021.65 1021.40 1021.78 1021.95 1021.47 1020.74 1019.29 1017.50 1017.26 1017.35 1017.46 1017.71 1017.68 1017.97 1018.35 1018.64 1018.65 1018.63 1018.58 1018.30 1018.59 1018.96 1019.23 1019.33 1019.20 1019.20 1018.88 1018.85 1017.79 1016.84 1016.30 1015.32 1015.81 1015.97 1015.53 1016.83 1017.60 1017.93 1017.76 1017.55 1017.69 1017.42
1021.77 1021.88 1021.75 1021.72 1021.62 1021.83 1021.55 1020.62 1019.69 1017.63 1017.01 1017.15 1017.48 1017.88 1018.09 1018.26 1018.44 1018.80 1019.14 1019.15 1019.43 1019.34 1019.14 1019.23 1019.57 1019.93 1020.07 1019.90 1019.73 1019.96 1020.17 1020.47 1019.93 1018.85 1016.54 1016.86 1016.02 1015.61 1016.91 1017.55 1017.81 1017.83 1018.31 1018.18 1017.37
1021.67 1021.79 1021.76 1021.43 1021.78 1021.81 1021.13 1020.06 1017.78 1017.27 1016.99 1017.18 1017.51 1017.62 1018.19 1018.79 1019.17 1019.08 1019.14 1019.29 1019.58 1019.73 1019.43 1019.78 1020.10 1020.53 1020.87 1020.85 1020.97 1021.14 1021.33 1022.03 1021.81 1022.04 1020.66 1016.89 1016.28 1016.32 1016.56 1017.15 1017.67 1018.06 1018.15 1017.72 1017.21
1021.28 1021.55 1021.19 1021.34 1021.65 1021.37 1020.52 1018.66 1017.67 1017.13 1017.21 1017.43 1017.51 1017.42 1017.56 1018.30 1019.22 1019.44 1019.00 1019.61 1020.24 1020.78 1020.86 1020.64 1020.79 1021.11 1021.73 1021.74 1022.00 1021.87 1022.42 1023.00 1023.28 1022.75 1021.26 1017.33 1016.59 1016.28 1016.97 1017.51 1017.41 1017.31 1017.40 1017.04 1016.30
1021.22 1021.39 1021.10 1021.29 1021.50 1020.97 1019.45 1018.08 1017.33 1016.97 1017.05 1017.45 1017.29 1017.47 1017.65 1018.27 1018.80 1019.44 1018.96 1019.86 1020.51 1021.42 1021.28 1021.19 1021.40 1021.62 1021.93 1021.54 1021.32 1022.62 1022.75 1023.26 1023.65 1023.77 1022.69 1020.21 1016.39 1016.77 1017.76 1018.14 1017.97 1017.73 1017.53 1017.21 1016.55
1020.85 1021.50 1021.25 1021.34 1021.24 1019.78 1018.35 1017.48 1017.05 1017.09 1017.52 1017.45 1017.45 1017.25 1017.59 1018.09 1018.47 1019.32 1019.09 1019.70 1020.51 1021.38 1021.58 1021.80 1021.77 1021.93 1021.88 1022.16 1022.29 1022.14 1022.37 1022.97 1023.56 1023.78 1023.25 1022.30 1017.46 1017.33 1017.98 1018.27 1018.56 1018.13 1017.93 1017.50 1016.83
1020.11 1020.47 1021.23 1021.30 1019.87 1018.80 1017.67 1017.16 1016.98 1016.78 1016.80 1016.81 1016.81 1016.93 1017.34 1018.00 1018.90 1018.64 1019.37 1020.53 1021.32 1021.66 1021.83 1022.25 1022.20 1022.05 1022.61 1022.93 1022.57 1022.31 1022.49 1022.62 1023.29 1024.05 1023.12 1022.47 1017.81 1017.06 1017.50 1018.36 1018.40 1018.35 1017.99 1017.27 1016.42
1019.19 1019.93 1020.65 1020.22 1018.64 1017.67 1017.08 1016.11 1016.14 1016.00 1015.78 1016.25 1016.45 1017.31 1017.85 1018.30 1018.70 1018.83 1020.04 1021.51 1021.87 1022.40 1022.64 1022.57 1022.29 1021.98 1021.23 1020.75 1021.62 1022.52 1022.65 1022.85 1023.25 1023.33 1021.74 1020.41 1017.99 1016.92 1018.21 1018.50 1018.45 1017.94 1017.85 1017.39 1016.56
1017.96 1017.82 1017.10 1017.67 1017.64 1017.00 1016.26 1014.86 1015.10 1015.25 1015.91 1015.99 1016.45 1016.72 1017.31 1018.56 1019.17 1019.45 1020.62 1021.58 1022.03 1022.34 1022.60 1022.96 1022.48 1022.35 1022.03 1022.03 1022.18 1022.08 1022.05 1022.09 1022.61 1022.39 1022.01 1018.98 1019.47 1018.65 1019.22 1019.44 1019.07 1018.62 1018.01 1017.57 1016.32
1016.00 1016.56 1016.80 1015.30 1015.07 1015.69 1014.75 1013.04 1012.97 1013.62 1014.77 1015.36 1015.64 1015.97 1016.69 1016.90 1017.29 1018.45 1019.41 1020.46 1021.07 1022.58 1022.82 1023.21 1022.95 1023.21 1022.79 1022.60 1022.46 1021.69 1021.24 1020.81 1021.57 1021.89 1021.35 1020.87 1019.37 1019.41 1019.31 1019.81 1019.42 1018.65 1018.71 1017.66 1017.01
1014.65 1014.91 1015.00 1012.82 1013.62 1013.87 1011.13 1010.19 1010.90 1013.05 1013.37 1014.20 1014.80 1015.81 1016.91 1016.79 1018.27 1019.39 1019.46 1020.16 1020.45 1021.33 1022.60 1023.64 1023.80 1024.28 1023.17 1023.63 1023.07 1021.37 1019.49 1019.44 1020.35 1020.31 1020.40 1020.17 1019.38 1019.51 1019.11 1019.48 1019.84 1018.81 1018.08 1018.57 1017.95
Wind_Speed
18 19 20 19 18 17 16 15 14 13 14 14 13 10 11 11 4 1 9 5 7 13 8 4 1 3 1 3 3 2 2 3 2 3 4 1 6 2 2 8 4 3 6 14 14
18 20 21 20 19 19 18 15 13 13 15 14 12 10 9 9 2 13 3 9 10 10 4 6 5 4 2 2 1 2 3 3 1 1 7 12 6 8 5 12 5 8 8 11 16
18 19 20 21 21 21 20 17 14 13 15 14 12 10 8 3 1 5 9 10 10 6 1 1 2 2 1 1 1 0 3 3 0 3 5 9 11 1 7 8 13 14 17 17 17
17 18 20 22 22 23 22 19 16 14 13 13 10 8 2 1 1 4 10 11 10 2 1 3 3 2 1 2 1 5 3 3 1 1 4 9 8 7 5 9 11 9 12 16 21
16 17 19 20 23 24 23 21 17 16 14 13 8 7 3 5 2 4 10 8 4 4 5 3 2 0 3 3 4 4 4 1 3 6 7 7 7 4 4 6 11 18 19 19 18
15 17 19 20 22 24 24 21 17 18 15 11 7 7 2 4 1 5 9 3 9 6 5 5 2 1 1 2 3 2 9 13 2 5 2 4 7 4 5 10 20 15 14 16 17
15 17 19 21 23 24 25 24 17 19 12 8 5 3 7 5 2 4 8 3 4 3 2 2 1 2 1 2 2 3 8 7 6 4 5 4 5 3 6 18 18 14 14 15 17
14 16 19 20 23 25 26 26 17 15 8 4 3 1 5 2 1 4 7 2 4 4 3 5 3 2 2 3 3 4 4 6 6 4 7 11 10 11 12 15 13 11 13 14 16
13 15 18 20 23 25 26 26 16 7 3 2 1 3 4 1 1 3 4 4 1 2 4 3 1 3 2 5 5 1 9 14 12 2 2 5 16 10 16 14 12 12 13 12 12
12 15 18 20 22 24 26 19 9 2 2 1 3 3 1 1 3 4 2 3 4 3 3 2 3 3 2 8 8 12 11 10 20 6 14 10 13 18 14 14 11 11 11 15 15
12 15 17 19 21 20 13 7 8 2 10 3 6 3 4 6 1 2 4 1 1 0 6 4 6 4 5 6 8 8 12 20 21 19 12 12 18 22 7 11 12 12 13 15 16
11 14 17 18 19 15 4 7 3 1 9 1 1 5 3 3 1 4 4 2 4 8 4 5 7 3 5 4 6 11 16 19 13 5 13 20 18 6 10 13 11 10 15 17 18
9 12 16 18 14 4 6 4 1 2 4 3 2 2 2 2 2 4 5 1 1 7 2 5 4 3 2 7 8 13 11 11 15 18 17 17 11 5 11 9 12 11 14 17 20
8 11 15 20 1 0 3 1 2 3 3 2 1 2 1 0 2 2 3 2 2 2 3 7 2 1 5 6 4 10 7 12 19 21 16 16 12 8 11 7 12 13 15 18 22
5 8 12 12 2 1 3 0 4 2 6 2 3 3 1 2 2 3 2 2 5 2 4 1 1 3 5 4 2 4 11 13 23 23 16 4 7 3 9 7 15 16 17 20 25
4 6 7 1 1 4 1 5 3 3 8 1 2 1 2 2 1 6 1 5 3 2 1 3 1 2 2 2 3 9 10 22 9 5 6 9 5 7 6 5 11 16 20 26 29
3 4 1 1 1 5 5 3 3 6 1 3 2 1 1 3 4 3 3 1 4 5 5 2 1 1 2 3 2 9 10 8 6 3 6 8 10 7 9 7 12 17 22 28 28
2 0 1 2 2 5 3 1 7 3 6 2 1 1 5 3 3 0 2 5 3 2 2 5 5 3 2 0 2 2 2 2 8 6 17 14 7 4 8 8 12 17 23 25 26
3 1 2 3 3 3 3 5 6 7 2 4 2 4 3 2 3 3 5 5 3 7 7 6 6 3 4 1 1 6 5 3 5 3 7 7 5 13 8 13 16 22 24 24 27
2 1 3 6 4 2 3 8 8 5 5 2 6 6 7 4 5 3 5 5 6 4 3 3 5 3 6 1 6 3 5 3 3 5 8 10 18 8 14 15 24 29 27 27 28
2 2 3 4 3 2 8 9 7 5 7 8 7 10 9 6 9 5 6 4 6 6 5 5 5 5 2 10 7 5 5 2 1 4 5 8 8 6 12 11 27 27 27 27 29
3 3 3 4 5 3 7 7 6 7 3 6 3 9 11 9 6 7 10 6 8 10 7 5 4 5 4 8 8 9 8 7 4 6 8 8 16 10 2 21 23 25 26 27 30
4 2 2 3 8 8 4 6 7 9 10 12 12 11 7 10 6 10 5 3 8 8 8 9 4 2 3 2 3 7 9 7 7 4 14 7 10 10 20 24 25 26 27 27 31
4 4 3 4 3 9 12 10 11 10 11 8 4 6 5 8 5 5 8 5 6 4 3 3 5 10 11 9 2 6 12 13 14 8 9 19 26 28 22 24 26 28 28 30 29
4 7 7 8 10 17 15 8 16 12 11 11 6 17 12 7 6 7 6 7 5 7 6 5 7 8 13 16 13 16 19 18 21 20 15 18 20 24 22 21 26 28 28 28 29
8 5 3 4 6 20 20 20 28 16 15 12 16 15 13 19 15 11 14 9 7 7 8 6 3 1 5 12 15 18 18 20 18 19 23 23 29 20 20 18 24 27 27 25 29
3 1 4 12 12 14 23 31 27 18 11 16 20 12 13 15 5 2 2 5 9 12 12 9 5 3 7 2 6 13 22 21 11 9 15 16 18 17 21 20 20 26 24 26 28
Wind_Direction
356 356 353 353 347 352 354 351 344 335 332 335 333 337 341 347 304 11 49 327 300 312 319 296 261 28 97 76 34 319 219 207 218 193 351 18 328 55 262 278 274 233 297 336 320
357 350 349 347 346 348 348 348 342 340 336 337 337 344 341 341 73 55 351 309 307 326 327 3 9 359 100 88 102 252 247 168 17 29 318 316 322 327 291 320 307 304 359 330 331
356 349 345 343 347 342 341 342 342 347 340 335 337 337 336 316 66 15 350 335 328 326 306 349 343 12 95 321 36 280 272 138 180 301 312 306 326 64 301 338 15 344 336 335 347
348 347 345 344 342 338 335 337 343 345 339 332 329 332 13 211 21 355 342 337 331 323 329 347 3 24 342 262 45 277 260 212 115 168 303 297 329 322 296 337 346 347 335 344 19
346 345 344 341 338 334 331 335 341 335 338 329 324 320 175 73 80 334 336 348 355 360 31 21 39 30 286 294 302 246 308 109 155 295 270 298 294 310 283 14 343 345 358 22 38
346 344 340 338 337 333 329 328 335 329 334 326 321 303 110 94 317 336 336 358 27 14 14 10 22 332 264 259 261 331 292 291 154 142 205 322 310 320 76 347 346 2 33 63 45
347 341 338 339 338 332 327 321 335 326 326 325 344 305 65 84 16 355 15 30 356 14 348 1 331 251 88 270 346 307 300 308 139 88 142 270 303 200 28 350 338 31 76 54 42
345 341 336 341 338 331 324 317 337 322 321 13 331 296 76 43 23 21 349 110 47 19 44 335 353 65 346 334 246 273 234 339 352 23 140 345 299 322 348 334 22 78 71 48 40
344 340 338 343 338 330 319 312 327 325 12 358 25 7 110 129 30 343 355 352 15 38 54 289 55 32 211 315 270 13 319 326 324 303 43 343 296 311 341 356 80 73 61 43 31
341 339 340 343 339 328 317 308 305 166 46 73 113 132 119 291 311 337 345 358 22 347 294 316 358 294 36 6 319 307 310 307 309 293 335 307 279 316 349 90 88 77 46 27 17
338 336 343 344 338 331 336 349 354 355 43 42 314 281 309 316 272 58 354 9 36 25 356 35 320 328 12 334 290 296 296 303 310 332 337 326 312 321 7 83 78 58 33 14 4
336 338 340 341 336 330 12 63 68 307 307 134 276 289 268 304 8 35 333 10 22 351 335 310 290 31 310 298 305 309 306 307 305 323 334 316 318 330 81 85 60 53 21 14 2
335 340 337 336 327 12 67 76 311 190 274 308 218 268 279 248 90 5 359 70 26 333 251 270 314 355 322 305 320 310 309 317 305 318 294 324 294 351 115 79 46 42 17 10 5
337 343 340 334 139 15 69 5 222 196 279 217 192 165 196 223 137 16 30 320 222 271 273 270 347 296 298 287 326 300 356 310 311 320 312 346 291 324 165 54 26 15 8 1 355
332 344 346 7 107 82 85 360 144 221 306 175 145 111 17 276 324 120 33 213 241 220 196 277 252 286 287 350 328 337 330 309 301 292 310 291 236 215 243 6 6 4 356 353 350
300 336 338 278 75 103 128 148 210 251 251 181 90 298 238 35 40 325 44 47 32 175 278 307 337 286 351 89 59 323 329 306 293 281 245 126 344 250 352 25 0 355 355 348 344
268 330 311 187 154 145 159 208 275 222 55 186 175 29 64 282 314 39 11 294 252 247 219 317 121 99 6 197 189 360 350 319 307 268 285 168 325 318 96 44 13 356 351 339 334
241 222 148 289 137 159 208 177 219 226 242 97 143 207 258 7 223 282 191 237 202 227 144 238 212 211 45 143 334 105 164 231 278 303 297 294 220 170 135 25 9 357 343 329 328
161 188 246 186 177 193 211 209 240 205 165 175 200 265 215 255 266 279 224 241 178 197 210 182 239 132 37 252 291 143 214 35 267 199 278 253 227 180 39 355 349 337 334 329 328
176 258 224 143 169 202 195 231 232 204 142 150 260 201 267 193 229 217 209 152 186 210 279 166 260 190 137 38 53 273 107 160 184 277 287 281 296 266 356 343 337 337 333 332 327
144 232 125 154 191 192 220 220 229 211 159 186 219 252 243 268 231 235 237 163 182 157 181 161 240 147 175 200 206 158 176 151 315 248 261 294 283 37 344 342 335 330 330 329 322
153 227 140 178 184 210 220 200 181 190 191 241 234 235 241 217 220 228 227 221 164 164 185 172 176 219 266 313 256 232 196 178 192 215 237 291 275 308 285 339 328 324 327 324 317
200 179 151 248 217 221 230 243 233 175 194 194 223 207 183 193 233 214 189 121 162 173 170 177 195 225 183 170 171 204 188 195 226 245 235 244 257 204 336 324 325 324 328 322 319
131 196 182 208 257 240 233 225 229 212 242 212 201 132 146 203 228 191 177 172 182 177 135 184 200 235 260 310 129 201 202 213 205 220 258 232 271 290 313 322 324 325 328 322 320
152 221 184 202 227 231 230 247 224 219 216 180 215 217 194 207 186 232 182 166 192 193 172 218 235 244 260 274 268 264 260 243 231 238 246 270 280 286 307 328 322 322 323 320 324
195 169 192 258 237 204 210 226 232 224 183 209 234 192 193 217 190 190 175 177 190 177 172 193 230 303 271 265 261 259 259 252 240 243 249 262 273 285 321 318 321 321 321 327 327
163 79 153 226 204 214 216 233 236 220 214 242 207 174 200 214 198 37 69 210 167 161 181 177 182 166 277 54 319 270 240 239 226 213 233 249 261 322 309 318 324 316 328 329 323